Mason City, IA

4:32 AM CDT on March 23, 2017 (GMT -0500)
Mason City Municipal

Weather History for KMCW - January, 2013

Change the Weather History Date:

Friday, January 18, 2013

  Actual Average Record
Temperature  
Mean Temperature 35 °F 16 °F  
Max Temperature 47 °F 25 °F 50 °F (1944)
Min Temperature 23 °F 7 °F -30 °F (1967)
Degree Days  
Heating Degree Days 30 49  
Month to date heating degree days 800 882  
Since 1 July heating degree days 3671 3971  
Cooling Degree Days 0 0  
Month to date cooling degree days 0 0  
Year to date cooling degree days 0 0  
Moisture  
Dew Point 26 °F    
Average Humidity 71    
Maximum Humidity 88    
Minimum Humidity 53    
Precipitation  
Precipitation 0.00 in 0.02 in 0.90 in (2014)
Month to date precipitation 0.11 0.46  
Year to date precipitation 0.11 0.46  
Snow  
Snow 0.00 in 0.40 in 5.50 in (1931)
Month to date snowfall 0.1 6.0  
Since 1 July snowfall 10.7 20.0  
Snow Depth 0.00 in    
Sea Level Pressure  
Sea Level Pressure 29.97 in    
Wind  
Wind Speed 16 mph (SW)    
Max Wind Speed 31 mph    
Max Gust Speed 38 mph    
Visibility 10 miles    
Events      
T = Trace of Precipitation, MM = Missing Value Source: NWS Daily Summary

Daily Weather History Graph

Daily Weather History Graph

Search for Another Location

Airport or City:

Trip Planner

Search our weather history database for the weather conditions in past years. The results will help you decide how hot, cold, wet, or windy it might be!

Date:

Astronomy

Jan. 18, 2013 Rise Set
Actual Time 7:40 AM CST 5:07 PM CST
Civil Twilight 7:09 AM CST 5:39 PM CST
Nautical Twilight 6:34 AM CST 6:13 PM CST
Astronomical Twilight 6:00 AM CST 6:47 PM CST
Moon 11:05 AM CST (1/18) 12:11 AM CST (1/18)
Length of Visible Light 10h 29m
Length of Day
9h 27m
Waxing Crescent, 47% of the Moon is Illuminated
Jan 18
Waxing Crescent
Jan 18
First Quarter
Jan 26
Full
Feb 3
Last Quarter
Feb 10
New

Hourly Weather History & Observations

Time (CST) Temp. Windchill Dew Point Humidity Pressure Visibility Wind Dir Wind Speed Gust Speed Precip Events Conditions
12:53 AM 24.1 °F 14.4 °F 19.0 °F 81% 30.31 in 10.0 mi SE 9.2 mph - N/A   Clear
1:53 AM 24.1 °F 13.7 °F 19.0 °F 81% 30.29 in 10.0 mi SE 10.4 mph - N/A   Clear
2:53 AM 25.0 °F 13.1 °F 19.0 °F 78% 30.24 in 10.0 mi SSE 13.8 mph - N/A   Clear
3:53 AM 25.0 °F 13.1 °F 19.0 °F 78% 30.19 in 10.0 mi SSE 13.8 mph - N/A   Clear
4:53 AM 25.0 °F 14.2 °F 19.9 °F 81% 30.14 in 10.0 mi SSE 11.5 mph - N/A   Clear
5:53 AM 25.0 °F 14.8 °F 21.0 °F 85% 30.09 in 10.0 mi South 10.4 mph - N/A   Clear
6:53 AM 30.0 °F 19.1 °F 24.1 °F 79% 30.04 in 10.0 mi South 15.0 mph - N/A   Clear
7:53 AM 30.0 °F 17.5 °F 24.1 °F 79% 30.00 in 10.0 mi SSW 19.6 mph 27.6 mph N/A   Clear
8:53 AM 34.0 °F 23.0 °F 26.1 °F 73% 29.99 in 10.0 mi SSW 18.4 mph 23.0 mph N/A   Clear
9:53 AM 39.0 °F 28.8 °F 27.0 °F 62% 29.96 in 10.0 mi SSW 21.9 mph 29.9 mph N/A   Clear
10:53 AM 42.1 °F 31.9 °F 27.0 °F 55% 29.93 in 10.0 mi SW 26.5 mph 36.8 mph N/A   Clear
11:53 AM 43.0 °F 33.8 °F 28.9 °F 58% 29.89 in 10.0 mi SW 23.0 mph 34.5 mph N/A   Clear
12:53 PM 45.0 °F 36.9 °F 28.9 °F 53% 29.85 in 10.0 mi WSW 20.7 mph 29.9 mph N/A   Clear
1:53 PM 46.0 °F 38.3 °F 30.0 °F 54% 29.85 in 10.0 mi WSW 20.7 mph 29.9 mph N/A   Clear
2:53 PM 46.0 °F 39.0 °F 30.0 °F 54% 29.82 in 10.0 mi SW 17.3 mph 26.5 mph N/A   Clear
3:53 PM 45.0 °F 37.6 °F 30.0 °F 56% 29.83 in 10.0 mi WSW 17.3 mph 24.2 mph N/A   Clear
4:53 PM 43.0 °F 35.1 °F 30.0 °F 60% 29.84 in 10.0 mi WSW 17.3 mph - N/A   Clear
5:53 PM 39.9 °F 31.4 °F 30.0 °F 68% 29.87 in 10.0 mi WSW 16.1 mph - N/A   Clear
6:53 PM 39.0 °F 30.6 °F 30.0 °F 70% 29.86 in 10.0 mi WSW 15.0 mph - N/A   Clear
7:53 PM 37.9 °F 29.2 °F 30.0 °F 73% 29.87 in 10.0 mi WSW 15.0 mph - N/A   Clear
8:53 PM 36.0 °F 27.5 °F 30.0 °F 79% 29.86 in 10.0 mi WSW 12.7 mph - N/A   Clear
9:53 PM 35.1 °F 25.9 °F 28.9 °F 78% 29.87 in 10.0 mi WSW 13.8 mph - N/A   Clear
10:53 PM 35.1 °F 27.4 °F 30.0 °F 82% 29.86 in 10.0 mi WSW 10.4 mph - N/A   Clear
11:53 PM 36.0 °F 29.0 °F 30.0 °F 79% 29.84 in 10.0 mi WSW 9.2 mph - N/A   Clear